Probability
3 0 0 0 0 0 0 0 0 0 0 0 0 0 3 0 0 0 0 0 0 0 0 0 0 0 10 16 19 16 13 10 6 3 3 3 0 0
6 3 0 0 0 0 0 0 0 0 0 0 0 0 0 0 0 0 0 0 0 0 0 0 0 0 0 0 0 0 0 0 0 3 3 0 0 3
3 0 0 0 0 0 0 0 0 0 0 0 0 0 0 0 0 0 0 0 0 0 0 0 0 0 0 0 0 0 0 0 0 0 0 0 0 0
0 0 0 0 0 0 0 0 0 0 0 0 0 0 0 0 0 0 0 0 0 0 0 0 0 0 0 0 0 0 0 0 0 0 0 0 0 0
0 0 0 0 0 0 0 0 0 0 0 0 0 0 0 0 0 0 0 0 0 0 0 0 0 0 0 0 0 0 0 0 0 0 0 0 0 0
0 0 0 0 0 0 0 0 0 0 0 0 0 0 0 0 0 0 0 0 0 0 0 0 0 0 0 0 0 0 0 0 0 0 0 0 0 0
0 0 0 0 0 0 0 0 0 0 0 0 0 0 0 0 0 0 0 0 0 0 0 0 0 0 0 0 0 0 0 0 0 0 0 0 0 0
0 0 0 0 0 0 0 0 0 0 0 0 0 0 0 0 0 0 0 0 0 0 0 0 0 0 0 0 0 0 0 0 0 0 0 0 0 0
0 0 0 0 0 0 0 0 0 0 0 0 0 0 0 0 0 0 0 0 0 0 0 0 0 0 0 0 0 0 0 0 0 0 0 0 0 0
0 0 0 0 0 0 0 0 0 0 0 0 0 0 0 0 0 0 0 0 0 0 0 0 0 0 0 0 0 0 0 0 0 0 0 0 0 0
0 0 0 0 0 0 0 0 0 0 0 0 0 0 0 0 0 0 0 0 0 0 0 0 0 0 0 0 0 0 0 0 0 0 0 0 0 0
0 0 0 0 0 0 0 0 0 0 0 0 0 0 0 0 0 0 0 0 0 0 0 0 0 0 0 0 0 0 0 0 0 0 0 0 0 0
0 0 0 0 0 0 0 0 0 0 0 0 0 0 0 0 0 0 0 0 0 0 0 0 0 0 0 0 0 0 0 0 0 0 0 0 0 0
0 0 0 0 0 0 0 0 0 0 0 0 0 0 0 0 0 0 0 0 0 0 0 0 0 0 0 0 0 0 0 0 0 0 0 0 0 0
0 0 0 0 0 0 0 0 0 0 0 0 0 0 0 0 0 0 0 0 0 0 0 0 0 0 0 0 0 0 0 0 0 0 0 0 0 0
0 0 0 0 0 0 0 0 0 0 0 0 0 0 0 0 0 0 0 0 0 0 0 0 0 0 0 0 0 0 0 0 0 0 0 0 0 0
0 0 0 0 0 0 0 0 0 0 0 0 0 0 0 0 0 0 0 0 0 0 0 0 0 0 0 0 0 0 0 0 0 0 0 0 0 0
0 0 0 0 0 0 0 0 0 0 0 0 0 0 0 0 0 0 0 0 0 0 0 0 0 0 0 0 0 0 0 0 0 0 0 0 0 0
0 0 0 0 0 0 0 0 0 0 0 0 0 0 0 0 0 0 0 0 0 0 0 0 0 0 0 0 0 0 0 0 0 0 0 0 0 0
0 0 0 0 0 0 0 0 0 0 0 0 0 0 0 0 0 0 0 0 0 0 0 0 0 0 0 0 0 0 0 0 0 0 0 0 0 0
0 0 0 0 0 0 0 0 0 0 0 0 0 0 0 0 0 0 0 0 0 0 0 0 0 0 0 0 0 0 0 0 0 0 0 0 0 0
0 0 0 0 0 0 0 0 0 0 0 0 0 0 0 0 0 0 0 0 0 0 0 0 0 0 0 0 0 0 0 0 0 0 0 0 0 0
0 0 0 0 0 0 0 0 0 0 0 0 0 0 0 0 0 0 0 0 0 0 0 0 0 0 0 0 0 0 0 0 0 0 0 0 0 0
Height
5762 5766 5770 5775 5780 5785 5790 5795 5801 5806 5812 5816 5821 5825 5829 5833 5839 5843 5846 5850 5853 5857 5860 5863 5865 5868 5870 5871 5873 5874 5874 5875 5875 5875 5875 5875 5874 5873
5753 5757 5762 5767 5772 5777 5781 5786 5792 5797 5802 5807 5812 5817 5821 5825 5830 5834 5838 5842 5846 5849 5853 5856 5859 5861 5863 5865 5867 5868 5869 5869 5870 5870 5870 5870 5869 5868
5746 5749 5753 5758 5763 5767 5772 5777 5782 5788 5793 5798 5803 5808 5813 5817 5821 5826 5830 5834 5838 5841 5845 5848 5851 5854 5856 5858 5860 5861 5862 5863 5864 5864 5864 5864 5863 5863
5738 5741 5745 5749 5754 5758 5763 5768 5773 5779 5784 5789 5794 5798 5804 5808 5813 5817 5821 5825 5829 5833 5836 5840 5843 5846 5848 5851 5852 5854 5855 5856 5857 5858 5858 5858 5857 5857
5732 5734 5737 5741 5745 5750 5754 5759 5764 5769 5774 5779 5784 5789 5794 5799 5803 5808 5812 5816 5820 5824 5827 5831 5834 5838 5840 5843 5845 5847 5848 5849 5850 5851 5851 5851 5851 5850
5726 5728 5731 5734 5738 5741 5746 5750 5755 5760 5764 5770 5774 5780 5785 5789 5794 5799 5803 5807 5811 5815 5818 5822 5826 5829 5832 5835 5837 5839 5840 5842 5843 5843 5844 5844 5844 5844
5720 5722 5725 5728 5730 5733 5737 5741 5745 5750 5755 5760 5765 5770 5775 5779 5785 5789 5793 5798 5801 5806 5810 5813 5817 5821 5823 5826 5829 5830 5832 5834 5835 5836 5836 5837 5837 5837
5716 5718 5719 5721 5723 5726 5729 5733 5737 5741 5746 5750 5755 5760 5765 5770 5774 5779 5784 5788 5793 5797 5801 5804 5808 5811 5815 5817 5820 5822 5824 5825 5827 5828 5828 5829 5829 5830
5713 5713 5714 5715 5717 5719 5722 5725 5729 5732 5736 5741 5746 5751 5756 5761 5765 5769 5773 5778 5783 5787 5791 5795 5798 5802 5805 5808 5811 5813 5815 5816 5818 5819 5820 5821 5822 5822
5709 5709 5709 5710 5711 5713 5715 5718 5721 5724 5728 5732 5737 5741 5745 5750 5754 5759 5763 5767 5772 5777 5781 5785 5788 5792 5795 5798 5801 5804 5805 5807 5809 5811 5812 5813 5814 5815
5706 5705 5705 5705 5706 5708 5710 5712 5714 5717 5720 5724 5728 5732 5736 5740 5744 5748 5753 5757 5761 5766 5771 5775 5778 5782 5785 5788 5791 5794 5796 5798 5800 5802 5803 5805 5806 5807
5704 5703 5702 5702 5702 5703 5704 5706 5708 5710 5713 5716 5720 5723 5727 5731 5735 5739 5743 5747 5751 5756 5761 5765 5768 5772 5775 5778 5781 5784 5787 5789 5791 5793 5795 5797 5798 5800
5703 5701 5700 5699 5699 5699 5700 5701 5703 5704 5707 5709 5712 5715 5719 5722 5726 5730 5734 5738 5742 5747 5751 5754 5758 5762 5765 5768 5771 5775 5777 5780 5782 5785 5786 5789 5790 5792
5702 5700 5699 5697 5697 5696 5697 5697 5698 5699 5701 5703 5705 5708 5711 5714 5718 5721 5724 5728 5733 5737 5741 5744 5748 5752 5756 5759 5762 5765 5768 5771 5774 5776 5778 5781 5783 5785
5701 5699 5697 5696 5694 5694 5693 5693 5693 5694 5695 5697 5699 5701 5703 5706 5709 5712 5716 5719 5723 5727 5731 5735 5739 5743 5747 5750 5753 5756 5759 5762 5765 5768 5770 5773 5775 5778
5700 5698 5696 5694 5693 5691 5690 5690 5690 5690 5690 5692 5693 5694 5696 5699 5701 5704 5708 5711 5715 5719 5723 5727 5731 5735 5738 5741 5744 5748 5751 5754 5757 5760 5762 5765 5768 5770
5699 5696 5694 5693 5691 5689 5688 5687 5686 5686 5686 5687 5687 5689 5690 5692 5695 5697 5700 5704 5707 5711 5715 5719 5722 5726 5729 5733 5736 5740 5743 5746 5749 5752 5755 5757 5760 5762
5697 5694 5692 5690 5688 5687 5685 5684 5683 5682 5682 5682 5682 5683 5685 5687 5688 5691 5694 5697 5700 5704 5707 5711 5714 5718 5721 5725 5729 5732 5735 5739 5742 5744 5747 5750 5753 5755
5694 5691 5689 5687 5685 5683 5682 5680 5679 5678 5678 5677 5678 5678 5680 5681 5683 5685 5688 5690 5694 5697 5700 5703 5707 5711 5714 5717 5721 5725 5728 5731 5734 5737 5740 5743 5746 5748
5689 5687 5685 5683 5681 5679 5678 5676 5675 5675 5674 5674 5674 5674 5675 5676 5678 5680 5682 5685 5688 5691 5693 5697 5700 5703 5707 5710 5714 5717 5720 5724 5727 5730 5733 5736 5739 5741
5684 5682 5680 5678 5676 5675 5674 5672 5671 5670 5670 5670 5670 5670 5670 5672 5673 5675 5677 5679 5682 5684 5687 5690 5693 5696 5700 5703 5707 5710 5713 5717 5720 5723 5726 5729 5731 5734
5676 5675 5673 5672 5671 5669 5668 5667 5666 5666 5665 5665 5665 5665 5666 5667 5668 5670 5671 5673 5676 5678 5681 5684 5687 5690 5693 5696 5700 5703 5706 5710 5713 5716 5719 5722 5725 5728
5666 5665 5664 5664 5663 5662 5662 5661 5660 5660 5660 5660 5660 5660 5661 5661 5662 5664 5666 5668 5670 5672 5675 5677 5680 5683 5686 5690 5693 5697 5700 5703 5706 5709 5713 5715 5718 5721
Wind_Speed
31 33 35 36 38 38 38 38 38 38 38 36 37 37 37 38 38 38 37 35 34 34 32 31 30 28 27 26 25 25 25 24 23 23 23 23 23 24
29 31 33 35 37 38 38 39 39 38 38 38 37 37 38 39 39 40 39 37 36 35 34 33 32 31 30 29 28 27 26 26 25 25 24 24 25 24
27 29 31 33 36 38 39 39 40 40 39 39 40 39 38 38 39 40 40 39 37 36 35 34 34 33 32 31 30 29 28 27 26 26 25 25 26 25
24 27 29 32 35 36 38 39 39 40 41 40 41 40 39 39 39 38 39 38 37 37 37 36 35 35 33 33 32 31 30 29 28 28 28 28 27 26
21 24 27 29 32 35 36 38 39 40 40 40 41 41 41 40 40 40 39 38 38 38 38 37 36 36 35 34 33 32 31 30 30 30 30 29 28 27
18 21 23 27 29 32 33 35 38 39 39 40 41 41 41 42 41 41 40 39 38 38 39 38 37 36 36 35 34 33 33 33 32 31 30 30 29 28
16 18 21 24 26 28 31 33 35 37 38 39 40 41 41 42 42 41 40 40 40 38 37 38 37 37 36 36 36 35 34 33 33 31 30 30 29 28
13 16 18 21 24 26 28 31 33 34 36 38 39 40 40 40 41 41 41 41 40 38 37 38 38 38 38 38 37 36 35 34 33 32 31 30 29 29
12 14 16 18 21 24 26 29 30 32 34 36 37 38 39 41 40 40 41 42 42 41 40 39 39 39 39 38 38 37 37 35 34 33 32 31 30 28
11 12 14 16 18 20 22 25 28 30 32 34 34 35 37 39 40 40 41 41 42 42 42 41 40 40 39 38 38 38 37 36 35 34 32 31 30 28
10 10 11 12 14 17 19 22 25 27 30 32 33 34 35 36 37 38 39 40 40 41 42 41 40 39 39 39 38 38 37 36 34 34 33 31 30 27
10 9 10 10 12 14 17 19 22 24 26 29 31 32 34 35 35 36 37 38 38 39 39 39 39 39 39 39 38 37 36 36 34 33 31 29 28 26
11 9 9 10 12 13 15 17 19 22 24 26 29 31 32 33 35 35 34 35 36 37 37 38 38 38 37 36 35 35 35 33 31 31 30 28 27 26
13 11 10 10 11 11 13 15 17 19 22 24 26 28 30 31 33 33 33 34 35 36 37 37 37 35 35 34 33 33 32 31 30 30 28 27 26 25
14 12 11 10 10 10 11 13 15 17 19 21 24 25 27 29 30 32 32 33 34 35 35 35 35 34 33 32 31 31 30 29 30 29 28 27 26 26
15 13 12 11 11 11 11 12 13 15 17 19 20 22 24 27 28 29 31 32 33 34 34 33 32 32 31 31 30 30 30 30 29 29 28 27 27 26
16 14 13 12 12 11 11 12 12 14 15 18 19 20 22 24 26 27 28 29 30 31 32 32 32 32 32 31 30 29 29 29 28 28 27 26 25 25
18 16 15 14 13 13 12 12 12 13 14 16 17 18 20 21 22 24 25 26 27 28 30 31 31 31 31 30 29 28 28 27 27 26 25 25 25 25
20 18 18 17 16 15 14 14 13 13 13 14 16 18 19 20 21 22 24 25 27 27 28 29 30 30 30 29 29 29 28 27 26 26 25 24 24 24
23 21 20 19 18 17 16 15 15 14 14 14 15 17 18 19 21 23 24 24 26 27 27 28 29 29 29 29 28 28 28 27 26 25 25 25 24 24
26 24 23 21 20 19 18 17 17 16 16 16 16 16 17 18 19 21 23 24 25 25 26 26 27 28 28 28 28 28 27 26 25 25 25 25 24 24
30 28 27 25 23 21 20 20 19 18 18 18 18 18 18 18 20 21 22 24 25 25 25 24 25 26 26 27 27 27 26 26 25 25 25 25 24 24
34 32 31 29 28 26 24 23 22 21 20 20 19 19 20 20 21 22 22 23 24 25 25 25 25 25 25 25 26 26 26 25 25 25 25 25 25 24
Wind_Direction
243 239 236 235 236 235 235 235 235 234 232 232 233 234 234 234 233 233 235 237 238 239 240 243 246 248 251 253 258 263 266 269 272 275 275 279 283 289
245 240 237 235 235 234 235 235 234 233 232 232 232 234 235 234 234 234 236 237 239 240 242 243 246 248 250 253 257 262 265 267 269 272 274 279 284 287
245 242 239 236 235 236 236 236 234 233 233 234 233 233 235 235 235 237 237 238 239 241 242 243 245 247 250 253 257 260 263 265 267 270 273 280 283 285
246 242 239 237 236 236 237 237 236 236 236 235 235 234 233 235 236 237 237 239 240 241 242 243 245 247 249 253 256 259 262 263 265 269 274 278 281 283
248 243 241 239 238 236 237 238 238 238 238 237 236 236 235 235 235 236 238 238 239 240 242 243 244 246 249 252 255 258 260 263 265 268 273 277 279 280
252 245 242 240 239 238 238 238 238 238 238 239 239 238 238 237 236 236 238 237 238 240 241 243 243 246 248 251 255 257 259 262 266 268 271 273 278 279
257 251 246 243 242 240 239 238 238 238 237 238 238 239 240 240 238 237 238 238 240 240 241 241 242 245 247 251 254 256 258 261 263 266 269 272 276 279
264 257 252 248 244 242 241 240 240 239 237 237 237 238 240 240 239 239 238 238 239 240 242 242 243 245 247 250 253 255 257 259 260 263 267 270 274 276
279 267 260 254 248 244 242 240 240 239 238 237 238 238 240 240 240 240 240 239 239 240 242 243 243 245 248 250 252 254 256 257 259 262 265 267 270 272
294 280 270 260 252 246 243 241 240 240 240 239 237 237 237 239 240 240 241 240 240 240 242 245 246 247 248 249 252 253 254 256 259 261 262 263 267 269
309 293 279 267 257 250 247 244 242 240 239 238 239 239 239 239 240 241 241 240 240 240 243 245 246 247 248 249 251 252 252 254 256 257 258 261 263 262
322 306 293 281 268 259 253 249 244 242 241 240 239 239 239 239 239 240 240 239 239 239 241 243 243 245 247 248 249 250 251 252 253 254 257 259 258 256
335 320 304 293 281 269 260 254 248 244 242 242 241 240 240 239 237 239 239 239 239 238 238 240 242 244 246 247 248 249 250 250 249 252 254 253 252 253
340 331 317 305 293 281 266 260 257 250 245 244 244 243 243 241 240 238 238 238 238 239 239 240 242 244 246 247 248 248 248 247 248 250 250 247 249 251
338 332 321 313 305 292 277 269 264 257 252 249 248 246 243 241 239 238 237 237 237 238 240 241 242 244 245 246 245 243 244 245 247 246 243 243 246 249
334 329 324 318 310 301 287 276 270 263 257 254 251 247 244 242 239 237 235 236 238 237 236 235 238 239 241 241 240 239 242 244 244 241 241 244 246 247
330 326 323 316 311 306 297 287 277 269 262 257 252 246 243 242 240 238 237 237 236 235 234 234 236 237 238 238 236 237 240 241 240 238 239 242 242 243
324 318 314 313 310 305 299 293 287 279 267 259 253 248 245 243 240 236 235 234 231 233 233 233 234 233 233 232 232 235 237 238 237 236 238 240 240 241
316 312 307 305 303 299 296 291 287 281 272 265 256 250 247 243 239 237 235 234 233 235 234 233 233 233 234 232 232 233 235 235 235 236 236 237 238 238
306 306 304 300 297 294 291 287 283 278 274 268 259 253 248 246 243 238 236 235 235 236 235 234 235 234 232 231 232 233 232 233 233 234 234 235 236 237
299 298 297 295 292 289 287 284 280 275 270 267 263 256 252 247 242 238 238 237 237 237 235 233 233 232 232 232 233 232 231 231 230 232 233 234 235 235
293 291 289 287 285 282 280 278 276 272 268 264 262 258 255 251 247 241 240 239 235 232 231 232 233 231 230 231 231 231 228 229 230 232 233 233 233 234
287 286 284 282 279 276 273 272 270 266 263 262 260 255 252 248 244 240 237 235 233 232 233 233 233 231 230 230 229 228 228 230 231 232 232 232 233 233